Chatham, MA

1:53 AM EST on January 23, 2018 (GMT -0500)
Chatham Municipal

Weather History for KCQX - October, 2014

Change the Weather History Date:

Thursday, October 2, 2014

  Actual Average Record
Temperature  
Mean Temperature 60 °F -  
Max Temperature 61 °F 62 °F 79 °F (2013)
Min Temperature 57 °F 48 °F 40 °F (1992)
Degree Days  
Heating Degree Days 6    
Growing Degree Days 10 (Base 50)    
Moisture  
Dew Point 55 °F    
Average Humidity 88    
Maximum Humidity 97    
Minimum Humidity 75    
Precipitation  
Precipitation 0.09 in - - ()
Sea Level Pressure  
Sea Level Pressure 30.07 in    
Wind  
Wind Speed 11 mph (NE)    
Max Wind Speed 16 mph    
Max Gust Speed 26 mph    
Visibility 8 miles    
Events Rain    
Averages and records for this station are not official NWS values.
T = Trace of Precipitation, MM = Missing Value Source: NWS Daily Summary

Daily Weather History Graph

Daily Weather History Graph

Search for Another Location

Airport or City:

Trip Planner

Search our weather history database for the weather conditions in past years. The results will help you decide how hot, cold, wet, or windy it might be!

Date:

Astronomy

Oct. 02, 2014 Rise Set
Actual Time 6:37 AM EDT 6:20 PM EDT
Civil Twilight 6:10 AM EDT 6:47 PM EDT
Nautical Twilight 5:37 AM EDT 7:19 PM EDT
Astronomical Twilight 5:05 AM EDT 7:52 PM EDT
Moon 2:28 PM EDT (10/2) No Moon Set
Length of Visible Light 12h 37m
Length of Day
11h 42m
First Quarter, 60% of the Moon is Illuminated
Oct 2
First Quarter
Oct 8
Full
Oct 15
Last Quarter
Oct 23
New
Oct 30
First Quarter

Hourly Weather History & Observations

Time (EDT) Temp. Dew Point Humidity Pressure Visibility Wind Dir Wind Speed Gust Speed Precip Events Conditions
12:39 AM 61.0 °F 60.1 °F 97% 29.99 in 2.5 mi NNE 6.9 mph 17.3 mph N/A   Overcast
12:52 AM 60.1 °F 57.9 °F 93% 30.02 in 10.0 mi NE 12.7 mph 20.7 mph N/A   Overcast
1:34 AM 60.1 °F 57.9 °F 93% 30.03 in 9.0 mi NE 13.8 mph 21.9 mph N/A   Overcast
1:44 AM 61.0 °F 57.9 °F 90% 30.03 in 5.0 mi NE 15.0 mph 24.2 mph 0.00 in Rain Light Rain
1:52 AM 60.1 °F 57.9 °F 93% 30.03 in 5.0 mi NE 12.7 mph 21.9 mph 0.00 in Rain Light Rain
2:11 AM 60.1 °F 57.9 °F 93% 30.03 in 8.0 mi NE 13.8 mph 21.9 mph 0.00 in   Overcast
2:52 AM 60.1 °F 59.0 °F 96% 30.03 in 7.0 mi NE 10.4 mph 19.6 mph 0.00 in Rain Light Rain
3:14 AM 61.0 °F 60.1 °F 97% 29.96 in 1.2 mi NE 8.1 mph 19.6 mph N/A   Overcast
4:29 AM 59.0 °F 57.9 °F 96% 30.03 in 6.0 mi NNE 9.2 mph 20.7 mph 0.01 in   Overcast
4:47 AM 59.0 °F 57.2 °F 94% 30.04 in 8.0 mi NE 10.4 mph 19.6 mph 0.01 in Rain Light Rain
4:52 AM 59.0 °F 57.9 °F 96% 30.05 in 7.0 mi NE 9.2 mph 19.6 mph 0.01 in Rain Light Rain
5:44 AM 59.0 °F 57.9 °F 96% 30.06 in 10.0 mi NE 10.4 mph 18.4 mph 0.01 in   Overcast
5:52 AM 59.0 °F 57.9 °F 96% 30.06 in 10.0 mi NE 10.4 mph - 0.01 in Rain Light Rain
6:49 AM 59.0 °F 57.2 °F 94% 30.06 in 3.0 mi NNE 10.4 mph 24.2 mph 0.01 in Rain Light Rain
6:52 AM 59.0 °F 57.9 °F 96% 30.06 in 4.0 mi NE 11.5 mph 24.2 mph 0.01 in Rain Light Rain
7:08 AM 59.0 °F 57.0 °F 93% 30.06 in 9.0 mi NE 10.4 mph 19.6 mph 0.00 in   Overcast
7:52 AM 59.0 °F 57.0 °F 93% 30.07 in 10.0 mi NNE 13.8 mph 25.3 mph 0.00 in   Overcast
8:26 AM 62.1 °F 60.1 °F 93% 30.00 in 1.8 mi NE 13.8 mph 23.0 mph 0.06 in Rain Rain
8:42 AM 59.0 °F 55.9 °F 90% 30.10 in 10.0 mi NE 12.7 mph 24.2 mph 0.00 in   Overcast
8:52 AM 59.0 °F 55.9 °F 90% 30.09 in 10.0 mi NNE 13.8 mph 21.9 mph 0.00 in   Overcast
9:52 AM 59.0 °F 55.9 °F 90% 30.09 in 10.0 mi NE 16.1 mph 25.3 mph N/A   Overcast
10:42 AM 59.0 °F 55.9 °F 90% 30.09 in 10.0 mi NE 12.7 mph 25.3 mph N/A   Overcast
10:50 AM 59.0 °F 55.4 °F 88% 30.09 in 10.0 mi NE 12.7 mph 23.0 mph N/A   Overcast
10:52 AM 59.0 °F 55.0 °F 87% 30.09 in 10.0 mi NE 11.5 mph 23.0 mph N/A   Overcast
11:02 AM 59.0 °F 55.0 °F 87% 30.09 in 10.0 mi NNE 13.8 mph 24.2 mph N/A   Overcast
11:52 AM 57.9 °F 54.0 °F 87% 30.09 in 10.0 mi NNE 10.4 mph 26.5 mph N/A   Overcast
12:47 PM 57.2 °F 53.6 °F 88% 30.10 in 10.0 mi NNE 11.5 mph 25.3 mph N/A   Overcast
12:52 PM 57.9 °F 53.1 °F 84% 30.10 in 10.0 mi NNE 12.7 mph 25.3 mph N/A   Overcast
1:52 PM 57.0 °F 53.1 °F 87% 30.09 in 9.0 mi NNE 13.8 mph 23.0 mph N/A   Overcast
2:06 PM 57.0 °F 53.1 °F 87% 30.09 in 10.0 mi NNE 11.5 mph 23.0 mph N/A   Overcast
2:52 PM 57.0 °F 51.1 °F 81% 30.10 in 10.0 mi NNE 8.1 mph 23.0 mph N/A   Overcast
3:52 PM 57.0 °F 50.0 °F 77% 30.10 in 10.0 mi NNE 10.4 mph 19.6 mph N/A   Overcast
4:52 PM 57.0 °F 50.0 °F 77% 30.09 in 10.0 mi NNE 9.2 mph 20.7 mph N/A   Overcast
5:52 PM 57.0 °F 50.0 °F 77% 30.10 in 10.0 mi NE 13.8 mph 23.0 mph N/A   Overcast
6:52 PM 57.0 °F 51.1 °F 81% 30.10 in 10.0 mi NE 11.5 mph 23.0 mph N/A   Overcast
7:52 PM 57.0 °F 51.1 °F 81% 30.11 in 10.0 mi NE 12.7 mph 20.7 mph N/A   Overcast
8:52 PM 57.9 °F 50.0 °F 75% 30.12 in 10.0 mi NNE 8.1 mph 20.7 mph N/A   Overcast
9:52 PM 59.0 °F 51.1 °F 75% 30.11 in 10.0 mi NE 10.4 mph - N/A   Overcast
10:30 PM 57.9 °F 52.0 °F 81% 30.11 in 10.0 mi NNE 6.9 mph - N/A   Scattered Clouds
10:52 PM 57.9 °F 52.0 °F 81% 30.11 in 10.0 mi NE 6.9 mph - N/A   Clear
11:52 PM 57.0 °F 52.0 °F 83% 30.09 in 10.0 mi Variable 3.5 mph - N/A   Clear